Flight Track Log - Related Links

Times and Time Zones

All times are in EDT time to prevent confusion due to time zone crossing. See the SWA757 flight status page for this flight to view local times or setup timezone preferences in your user account.

Time Position Orientation Groundspeed Altitude Reporting Facility
EDT Latitude Longitude Course Direction KTS MPH feet Rate Location/Type
23:49 37.3970 -121.9610 338° Northwest 203 234 2,200  Level FlightAware
23:49 37.4060 -121.9630 350° North 208 239 2,600 4,000 Climbing FlightAware
23:49 37.4250 -121.9440 38° Northeast 219 252 4,200 3,840 Climbing FlightAware
23:50 37.4170 -121.9140 109° East 233 268 5,800 3,164 Climbing FlightAware
23:50 37.3910 -121.8830 137° Southeast 263 303 7,100 2,933 Climbing FlightAware
23:50 37.3770 -121.8670 138° Southeast 272 313 8,000 3,000 Climbing FlightAware
23:51 37.3520 -121.8390 138° Southeast 292 336 9,100 2,229 Climbing FlightAware
23:51 37.3020 -121.7810 137° Southeast 356 410 10,600 2,259 Climbing FlightAware
23:52 37.2490 -121.7220 138° Southeast 391 450 12,300 3,000 Climbing FlightAware
23:53 37.1910 -121.6570 138° Southeast 417 480 14,600 3,318 Climbing FlightAware
23:54 37.1250 -121.5830 138° Southeast 439 505 17,000 3,086 Climbing FlightAware
23:55 37.0340 -121.4820 138° Southeast 461 531 20,000 3,032 Climbing FlightAware
23:55 36.9800 -121.4220 138° Southeast 471 542 21,800 2,965 Climbing FlightAware
23:56 36.8920 -121.3250 139° Southeast 485 558 24,200 2,533 Climbing FlightAware
23:57 36.8330 -121.2600 139° Southeast 494 568 25,600 2,625 Climbing FlightAware
23:57 36.7580 -121.1760 138° Southeast 493 567 27,700 3,106 Climbing FlightAware
23:58 36.6760 -121.0870 139° Southeast 490 564 30,000 2,753 Climbing FlightAware
23:59 36.6100 -121.0140 138° Southeast 489 563 31,600 2,329 Climbing FlightAware
23:59 36.5340 -120.9310 139° Southeast 491 565 33,300 2,240 Climbing FlightAware
00:00 36.4870 -120.8790 138° Southeast 488 562 34,400 2,025 Climbing FlightAware
00:01 36.3970 -120.7820 139° Southeast 492 566 36,000 1,516 Climbing FlightAware
00:02 36.3170 -120.6960 139° Southeast 505 581 36,800 1,059 Climbing FlightAware
00:02 36.2470 -120.6190 138° Southeast 513 590 37,500 1,694 Climbing FlightAware
00:03 36.1690 -120.5360 139° Southeast 498 573 39,200 2,259 Climbing FlightAware
00:04 36.0990 -120.4600 139° Southeast 482 555 40,700 1,350 Climbing FlightAware
00:04 36.0300 -120.3860 139° Southeast 490 564 41,000 212 Climbing FlightAware
00:05 35.9540 -120.3050 139° Southeast 494 568 41,000  Level FlightAware
00:06 35.8840 -120.2310 139° Southeast 494 568 41,000  Level FlightAware
00:06 35.8070 -120.1490 139° Southeast 496 571 41,000  Level FlightAware
00:07 35.7380 -120.0750 139° Southeast 497 572 41,000  Level FlightAware
00:08 35.6680 -120.0010 139° Southeast 497 572 41,000  Level FlightAware
00:09 35.5890 -119.9280 143° Southeast 493 567 41,000  Level FlightAware
00:09 35.5110 -119.8600 145° Southeast 493 567 41,000  Level FlightAware
00:10 35.4340 -119.7940 145° Southeast 493 567 41,000  Level FlightAware
00:11 35.3620 -119.7320 145° Southeast 493 567 41,000  Level FlightAware
00:11 35.2790 -119.6610 145° Southeast 493 567 41,000  Level FlightAware
00:12 35.1930 -119.5870 145° Southeast 492 566 41,000  Level FlightAware
00:13 35.1200 -119.5250 145° Southeast 492 566 41,000  Level FlightAware
00:13 35.0490 -119.4640 145° Southeast 492 566 41,000  Level FlightAware
00:14 34.9960 -119.4200 146° Southeast 491 565 41,000  Level FlightAware
00:15 34.9010 -119.3390 145° Southeast 496 571 41,000  Level FlightAware
00:15 34.8220 -119.2730 146° Southeast 490 564 41,000  Level FlightAware
00:16 34.7430 -119.2060 145° Southeast 491 565 41,000  Level FlightAware
00:17 34.6630 -119.1380 145° Southeast 490 564 41,000  Level FlightAware
00:18 34.5760 -119.0650 145° Southeast 494 568 41,000  Level FlightAware
00:18 34.5040 -119.0040 145° Southeast 489 563 41,000  Level FlightAware
00:19 34.4500 -118.9590 145° Southeast 490 564 41,000  Level FlightAware
00:19 34.3930 -118.9110 145° Southeast 490 564 41,000  Level FlightAware
00:20 34.3170 -118.8390 142° Southeast 496 571 41,000  Level FlightAware
00:21 34.2160 -118.7320 139° Southeast 496 571 41,000  Level FlightAware
00:22 34.1460 -118.6570 138° Southeast 493 567 41,000 -1,392 Level FlightAware
00:23 34.0140 -118.5170 139° Southeast 478 550 38,100 -1,703 Descending FlightAware
00:24 33.8910 -118.3790 137° Southeast 504 580 36,600 -1,329 Descending FlightAware
00:25 33.7800 -118.2360 133° Southeast 501 577 35,000 -2,400 Descending FlightAware
00:26 33.6660 -118.0900 133° Southeast 515 593 31,000 -3,548 Descending FlightAware
00:27 33.5850 -117.9870 133° Southeast 508 585 28,200 -3,318 Descending FlightAware
00:28 33.5220 -117.9070 133° Southeast 495 570 26,300 -2,850 Descending FlightAware
00:29 33.4600 -117.8280 133° Southeast 483 556 24,400 -2,894 Descending FlightAware
00:29 33.3930 -117.7440 134° Southeast 473 544 22,200 -2,894 Descending FlightAware
00:30 33.3320 -117.6670 133° Southeast 461 531 20,300 -2,850 Descending FlightAware
00:31 33.2740 -117.5940 134° Southeast 447 514 18,400 -2,824 Descending FlightAware
00:31 33.2020 -117.5250 141° Southeast 436 502 16,300 -2,753 Descending FlightAware
00:32 33.1370 -117.4690 144° Southeast 423 487 14,500 -2,329 Descending FlightAware
00:33 33.0670 -117.4130 146° Southeast 397 457 13,000 -1,832 Descending FlightAware
00:34 33.0100 -117.3670 146° Southeast 365 420 11,600 -1,600 Descending FlightAware
00:34 32.9530 -117.3220 146° Southeast 327 376 10,600 -1,520 Descending FlightAware
00:35 32.9140 -117.2900 145° Southeast 318 366 9,700 -1,754 Descending FlightAware
00:35 32.8780 -117.2600 145° Southeast 299 344 8,700 -1,855 Descending FlightAware
00:36 32.8570 -117.2340 134° Southeast 287 330 8,000 -2,280 Descending FlightAware
00:36 32.8290 -117.2020 136° Southeast 285 328 6,800 -2,850 Descending FlightAware
00:36 32.8150 -117.1850 134° Southeast 285 328 6,100 -2,400 Descending FlightAware
00:37 32.7980 -117.1660 137° Southeast 285 328 5,400 -1,800 Descending FlightAware
00:37 32.7800 -117.1420 132° Southeast 277 319 4,900 -1,200 Descending FlightAware
00:37 32.7760 -117.1340 121° Southeast 266 306 4,800 -109 Descending FlightAware
00:38 32.7560 -117.0730 111° Southeast 231 266 4,800 -141 Level FlightAware
00:39 32.7410 -117.0300 113° Southeast 230 265 4,600 -927 Descending FlightAware
00:40 32.7020 -117.0410 193° South 170 196 3,100 -1,140 Descending FlightAware
00:40 32.7040 -117.0650 276° West 145 167 2,700 -900 Descending FlightAware
00:41 32.7090 -117.0870 285° West 131 151 2,200 -1,080 Descending FlightAware
00:41 32.7120 -117.1000 285° West 116 133 1,800 -1,200 Descending FlightAware
00:42 32.7150 -117.1140 284° West 112 129 1,300 -1,091 Descending FlightAware
00:42 32.7200 -117.1320 288° West 115 132 800 -873 Descending FlightAware
00:43 32.7230 -117.1470 283° West 124 143 500 -720 Descending FlightAware
00:43 32.7280 -117.1640 289° West 124 143 200 -360 Descending FlightAware
00:43 32.7310 -117.1800 283° West 124 143 200 -100 Level FlightAware
00:44 32.7389 -117.2061 283° West 120 138 100 -171 Descending Los Angeles Center

Login

Don't have an account? Register now (free) for customized features, flight alerts, and more!